KROZINGEN Weather Reports


time (UTC)temp
C
wind
direction
speed
KPH
gust
KPH
rain 1hr
cm
rain 24hr
cm
rain mn
cm
humidity
%
barometer
mb
20260505093212 15 349 1.6 0.0 0.00 0.00 0.00 83 1009.1
20260505090211 15 34 3.2 0.0 0.00 0.00 0.00 87 1009.5
20260505083211 15 51 1.6 0.0 0.00 0.00 0.00 86 1009.8
20260505080210 15 30 1.6 0.0 0.00 0.00 0.00 85 1009.9
20260505073210 14 250 1.6 0.0 0.00 0.00 0.00 89 1010.1
20260505070211 13 238 3.2 0.0 0.00 0.00 0.00 91 1010.2
20260505063211 12 273 3.2 0.0 0.00 0.00 0.00 92 1010.3
20260505060212 12 198 0.0 0.0 0.00 0.00 0.00 93 1010.5
20260505053211 12 229 1.6 0.0 0.00 0.00 0.00 94 1010.5
20260505050211 11 227 1.6 0.0 0.00 0.00 0.00 94 1010.4
20260505040210 11 124 3.2 0.0 0.00 0.00 0.00 92 1010.4
20260505033211 11 300 1.6 0.0 0.00 0.00 0.00 93 1010.3
20260505030213 11 185 8.0 0.0 0.00 0.00 0.00 92 1010.4
20260505023211 11 117 1.6 0.0 0.00 0.00 0.00 93 1010.8
20260505020211 11 117 0.0 0.0 0.00 0.00 0.00 93 1011.1
20260505013211 11 241 0.0 0.0 0.00 0.00 0.00 93 1011.4
20260505010211 11 241 1.6 0.0 0.00 0.00 0.00 92 1011.6
20260505003208 12 127 3.2 0.0 0.00 0.00 0.00 90 1011.9
20260505000211 12 122 1.6 0.0 0.00 0.00 0.00 91 1012.2
20260504233209 12 103 0.0 0.0 0.00 0.00 0.00 92 1012.4
20260504230209 12 103 0.0 0.0 0.00 0.00 0.00 93 1012.7
20260504223214 12 101 0.0 0.0 0.00 0.00 0.00 92 1012.6
20260504220209 12 91 1.6 0.0 0.00 0.00 0.05 92 1012.6
20260504213209 12 137 1.6 0.0 0.00 0.00 0.05 92 1013.3
20260504210209 13 252 0.0 0.0 0.00 0.00 0.05 91 1013.4
20260504203209 13 129 1.6 0.0 0.00 0.00 0.05 90 1013.4
20260504200209 14 112 3.2 0.0 0.00 0.00 0.05 90 1013.3
20260504193209 14 130 1.6 0.0 0.00 0.00 0.05 89 1013.2
20260504190209 14 231 0.0 0.0 0.00 0.00 0.05 89 1012.9
20260504183209 15 118 1.6 0.0 0.00 0.00 0.05 87 1013.0
20260504180214 15 120 1.6 0.0 0.00 0.00 0.05 86 1013.4
20260504173209 15 233 4.8 0.0 0.00 0.00 0.05 83 1013.8
20260504170210 16 226 8.0 0.0 0.00 0.00 0.03 78 1014.0
20260504160210 18 224 4.8 0.0 0.00 0.00 0.00 68 1013.7
20260504150210 18 290 4.8 0.0 0.00 0.00 0.00 59 1013.4
20260504140209 20 210 1.6 0.0 0.00 0.00 0.00 51 1013.2
20260504130215 20 283 4.8 0.0 0.00 0.00 0.00 51 1013.3
20260504120210 20 262 8.0 0.0 0.00 0.00 0.00 49 1013.4
20260504110210 21 289 4.8 0.0 0.00 0.00 0.00 49 1013.6
20260504100212 20 257 8.0 0.0 0.00 0.00 0.00 51 1014.1